Regional Weather Roundup
Issued by NWS

Home | Current Version | Previous Version | Graphics & Text | Print | Product List | Glossary On
Versions: 1 2 3 4 5 6 7 8 9 10 11 12 13 14 15 16 17 18 19 20 21 22 23 24 25 26 27 28 29 30 31 32 33 34 35 36 37 38 39 40 41 42 43 44 45 46 47 48 49 50
000
ASUS43 KOAX 271802
RWRNE

WEATHER ROUNDUP FOR NEBRASKA
NATIONAL WEATHER SERVICE OMAHA NE
100 PM CDT THU AUG 27 2015

NOTES: SATELLITE DATA IS BEING USED TO AUGMENT CLOUD COVER ABOVE
       12000 FEET.
       "FAIR" INDICATES FEW OR NO CLOUDS BELOW 12,000 FEET WITH NO
       SIGNIFICANT WEATHER AND/OR OBSTRUCTIONS TO VISIBILITY.

  * THESE STATIONS DO NOT REPORT WEATHER SUCH AS RAIN...SNOW OR FOG.

NEZ001>004-019>022-054>056-271900-
NEBRASKA PANHANDLE

CITY           SKY/WX    TMP DP  RH WIND       PRES   REMARKS
SCOTTSBLUFF    PTSUNNY   84  62  47 NW16      30.03F
6HR MIN TEMP:  65; 6HR MAX TEMP:  84;

ALLIANCE       MOSUNNY   80  63  55 N15       30.01F
6HR MIN TEMP:  67; 6HR MAX TEMP:  80;

CHADRON        PTSUNNY   79  58  48 NW9       30.03F
6HR MIN TEMP:  63; 6HR MAX TEMP:  79;

SIDNEY         SUNNY     86  55  34 NW24G31   30.03F
6HR MIN TEMP:  63; 6HR MAX TEMP:  86;

$$

NEZ057>060-069>072-079>082-271900-
SOUTHWEST NEBRASKA

CITY           SKY/WX    TMP DP  RH WIND       PRES   REMARKS
NORTH PLATTE   CLOUDY    78  65  63 E7        29.90S
6HR MIN TEMP:  59; 6HR MAX TEMP:  78;

IMPERIAL       SUNNY     88  60  38 N12       29.92S
6HR MIN TEMP:  64; 6HR MAX TEMP:  88;

MCCOOK         PTSUNNY   91  53  27 S9        29.87F
6HR MIN TEMP:  66; 6HR MAX TEMP:  91;

$$

NEZ005>010-023>029-035>040-094-271900-
NORTH CENTRAL NEBRASKA

CITY           SKY/WX    TMP DP  RH WIND       PRES   REMARKS
BROKEN BOW     CLOUDY    81  68  64 SE12G20   29.91F
6HR MIN TEMP:  69; 6HR MAX TEMP:  81;

ORD            PTSUNNY   79  68  69 E12       29.89F
6HR MIN TEMP:  66; 6HR MAX TEMP:  79;

$$

NEZ041-046>049-061>064-073>077-083>087-271900-
SOUTH CENTRAL NEBRASKA

CITY           SKY/WX    TMP DP  RH WIND       PRES   REMARKS
GRAND ISLAND   CLOUDY    79  68  69 SE15      29.93F
6HR MIN TEMP:  67; 6HR MAX TEMP:  79;

HASTINGS       CLOUDY    78  69  73 SE21G29   29.92F
6HR MIN TEMP:  69; 6HR MAX TEMP:  78;

KEARNEY *      CLOUDY    79  70  73 SE17      29.91F
$$

NEZ011>018-030>034-042>045-271900-
NORTHEAST NEBRASKA

CITY           SKY/WX    TMP DP  RH WIND       PRES   REMARKS
NORFOLK        PTSUNNY   76  67  73 SE18      29.95F
6HR MIN TEMP:  66; 6HR MAX TEMP:  77; 6HR PCP: TRACE;

COLUMBUS *     PTSUNNY  N/A N/A N/A SE14G20   29.96F
TEKAMAH        CLOUDY    75  63  66 SE20G28   29.99F
6HR MIN TEMP:  63; 6HR MAX TEMP:  75; 6HR PCP:  0.06;

$$

NEZ050>053-065>068-078-088>093-271900-
SOUTHEAST NEBRASKA

CITY           SKY/WX    TMP DP  RH WIND       PRES   REMARKS
LINCOLN        PTSUNNY   79  65  62 SE20G26   30.00F
6HR MIN TEMP:  66; 6HR MAX TEMP:  80; 6HR PCP:  0.03;

OMAHA EPPLEY   CLOUDY    77  63  61 S22G31    30.01F
6HR MIN TEMP:  65; 6HR MAX TEMP:  77; 6HR PCP: TRACE;

FALLS CITY     CLOUDY    77  66  68 SE21G26   30.06R
6HR MIN TEMP:  63; 6HR MAX TEMP:  81;

$$

NEZ044-045-051>053-067-271900-
OMAHA AREA

CITY           SKY/WX    TMP DP  RH WIND       PRES   REMARKS
OMAHA EPPLEY   CLOUDY    77  63  61 S22G31    30.01F
6HR MIN TEMP:  65; 6HR MAX TEMP:  77; 6HR PCP: TRACE;

OFFUTT AFB     CLOUDY    74  62  66 SE18G29   30.01F
$$



USA.gov is the U.S. government's official web portal to all federal, state and local government web resources and services.